OBJECT K, 64885

Orbit data source: Space-Track

You're viewing an Uncataloged Satellite

Recently launched and/or uncataloged satellites may have evolving metadata. Metadata may include but not limited to: Owner, Maufacturer, Bus, Motor, and Mission.

OBJECT K, 64885 is a satellite in SSO that was launched on Fri, 25 Jul 2025 UTC via a SOYUZ-2-1B launch vehicle from the Vostochny Cosmodrome (VOSTO). Unknown objects in Earth's orbit typically refer to objects detected orbiting the Earth but have not yet been identified or cataloged. These objects could be anything from previously untracked satellites, spent rocket stages, debris from satellite collisions, or even natural meteoroids temporarily captured by Earth's gravity.

Loading next visibility...
Identifier
64885, 2025-155K
Orbit
SSO
Country
Flag of TBDTBD
Related business
None
Manufacturer
SPUT/GEOSK
Mission
Operational spacecraft
Bus & Motor
CUBESAT 3U, Unknown motor
Mass
3 kg wet, 3 kg dry
Launch date (UTC)
2025-07-25 (1 month ago)
Launch vehicle
SOYUZ-2-1B
Launch site
Vostochny Cosmodrome (VOSTO)
Object type
Unknown
Shape & HBR
Unknown
Radar Cross Section
Medium (>0.1 m² and <1 m²)

Expand to show TLE details & history
Last TLE update: 8 hours ago

TLE from 8 hours ago
0 OBJECT K
1 64885U 25155K   25242.91509585  .00026599  00000-0  11228-2 0  9993
2 64885  97.4139 207.6690 0012354 109.8061 250.4509 15.23179490 36483
Epoch: 2025-08-30T21:57Z
TLE epoch observation values (Epoch: 2025-08-30T21:57:44.281Z)
Latitude
-0.00001°
Longitude
-101.10805°
Altitude
502.204 km
Speed
7.612 km/s
True Right ascension
13h 50m 40s
True Declination
0° 00' 00"
Sunlit
Object was in daylight at epoch
Visualization orbit readout
Latitude
Unknown
Longitude
Unknown
Altitude
Unknown
Speed
Unknown
Apparent Right ascension
Unknown
Apparent Declination
Unknown
Sunlit
N/A
Visualization observer readout
Local Sidereal Time
21:42:46
Azimuth
Unknown
Elevation
Unknown
Doppler factor
Unknown
Orbital elements
Apogee altitude
501.708 km
Perigee altitude
484.731 km
Semi-major axis
6,871.356 km
Eccentricity
0.00124
Inclination
97.4139°
RAAN
207.669°
Arg. of periapsis
109.8061°
True anomaly
250.31756°
Mean anomaly
250.4509°
Eccentric anomaly
250.38422°
Mean motion
3.81048 °/min
Orbital period
94.48 mins
BSTAR
0.0011228
Loading maneuver chart data...
Computing Atmospheric mass density...
Loading historical data...
Loading historical data...
Loading historical data...
Loading historical data...
Loading historical data...
Loading historical data...
Loading historical data...

Documentation

Showing up to 5 results
|